Salida, CO

1:47 AM MDT on August 20, 2017 (GMT -0600)
Salida

Weather History for KANK - September, 2013

Change the Weather History Date:

Saturday, September 28, 2013

  Actual Average (KGUC) Record (KGUC)
Temperature  
Mean Temperature 50 °F -  
Max Temperature 66 °F 63 °F 78 °F (2010)
Min Temperature 35 °F 29 °F 21 °F (1996)
Degree Days  
Heating Degree Days 14    
Moisture  
Dew Point 19 °F    
Average Humidity 33    
Maximum Humidity 56    
Minimum Humidity 14    
Precipitation  
Precipitation 0.00 in - - ()
Sea Level Pressure  
Sea Level Pressure 30.30 in    
Wind  
Wind Speed 11 mph (West)    
Max Wind Speed 21 mph    
Max Gust Speed 30 mph    
Visibility 10 miles    
Events      
Averages and records for this station are not official NWS values.
T = Trace of Precipitation, MM = Missing Value Source: NWS Daily Summary

Daily Weather History Graph

Daily Weather History Graph

Search for Another Location

Airport or City:

Trip Planner

Search our weather history database for the weather conditions in past years. The results will help you decide how hot, cold, wet, or windy it might be!

Date:

Astronomy

Sep. 28, 2013 Rise Set
Actual Time 6:57 AM MDT 6:51 PM MDT
Civil Twilight 6:31 AM MDT 7:17 PM MDT
Nautical Twilight 6:00 AM MDT 7:48 PM MDT
Astronomical Twilight 5:29 AM MDT 8:19 PM MDT
Moon 12:51 AM MDT (9/28) 3:08 PM MDT (9/28)
Length of Visible Light 12h 46m
Length of Day
11h 53m
Waning Crescent, 35% of the Moon is Illuminated
Sep 28
Waning Crescent
Oct 4
New
Oct 11
First Quarter
Oct 18
Full
Oct 26
Last Quarter

Hourly Weather History & Observations

Time (MDT) Temp. Windchill Dew Point Humidity Pressure Visibility Wind Dir Wind Speed Gust Speed Precip Events Conditions
12:15 AM 41.2 °F 31.9 °F 23.0 °F 48% 30.22 in 10.0 mi WSW 20.7 mph 25.3 mph N/A   Mostly Cloudy
12:35 AM 40.5 °F 32.8 °F 23.9 °F 52% 30.21 in 10.0 mi WSW 13.8 mph 23.0 mph N/A   Scattered Clouds
12:55 AM 40.1 °F 32.7 °F 22.6 °F 50% 30.20 in 10.0 mi WSW 12.7 mph 24.2 mph N/A   Clear
1:15 AM 40.1 °F 32.4 °F 21.7 °F 48% 30.21 in 10.0 mi WSW 13.8 mph 24.2 mph N/A   Clear
1:35 AM 39.9 °F 33.4 °F 20.8 °F 47% 30.21 in 10.0 mi WSW 10.4 mph 18.4 mph N/A   Clear
1:55 AM 40.1 °F 32.4 °F 19.9 °F 44% 30.22 in 10.0 mi West 13.8 mph 20.7 mph N/A   Clear
2:15 AM 40.1 °F 32.4 °F 19.6 °F 44% 30.22 in 10.0 mi WSW 13.8 mph 23.0 mph N/A   Clear
2:35 AM 40.1 °F 33.2 °F 19.2 °F 43% 30.22 in 10.0 mi WSW 11.5 mph 20.7 mph N/A   Clear
2:55 AM 39.9 °F 32.9 °F 18.3 °F 42% 30.23 in 10.0 mi West 11.5 mph 18.4 mph N/A   Clear
3:15 AM 39.9 °F 32.9 °F 16.5 °F 39% 30.23 in 10.0 mi West 11.5 mph 16.1 mph N/A   Clear
3:35 AM 37.6 °F 31.0 °F 20.7 °F 51% 30.23 in 10.0 mi NW 9.2 mph - N/A   Clear
3:55 AM 40.5 °F 34.1 °F 13.6 °F 34% 30.24 in 10.0 mi WNW 10.4 mph - N/A   Clear
4:15 AM 35.8 °F 29.4 °F 21.4 °F 56% 30.25 in 10.0 mi NNW 8.1 mph - N/A   Clear
4:35 AM 36.9 °F 31.4 °F 19.4 °F 49% 30.25 in 10.0 mi NW 6.9 mph - N/A   Clear
4:55 AM 37.8 °F 32.5 °F 18.1 °F 45% 30.26 in 10.0 mi NNW 6.9 mph - N/A   Clear
5:15 AM 38.1 °F 31.7 °F 17.6 °F 44% 30.26 in 10.0 mi North 9.2 mph - N/A   Clear
5:35 AM 35.4 °F 31.5 °F 18.3 °F 50% 30.27 in 10.0 mi West 4.6 mph - N/A   Clear
5:55 AM 36.3 °F 28.9 °F 17.6 °F 47% 30.28 in 10.0 mi NW 10.4 mph - N/A   Clear
6:15 AM 37.8 °F 33.3 °F 18.9 °F 47% 30.29 in 10.0 mi West 5.8 mph - N/A   Clear
6:35 AM 38.3 °F 33.2 °F 17.4 °F 43% 30.30 in 10.0 mi NW 6.9 mph - N/A   Clear
6:55 AM 38.5 °F 34.1 °F 17.6 °F 43% 30.30 in 10.0 mi WNW 5.8 mph - N/A   Clear
7:15 AM 36.9 °F 30.7 °F 17.8 °F 46% 30.31 in 10.0 mi NW 8.1 mph - N/A   Clear
7:35 AM 38.7 °F 34.3 °F 18.3 °F 44% 30.32 in 10.0 mi NW 5.8 mph - N/A   Clear
7:55 AM 38.1 °F 33.7 °F 21.2 °F 51% 30.32 in 10.0 mi North 5.8 mph - N/A   Clear
8:15 AM 38.5 °F 31.6 °F 19.9 °F 47% 30.32 in 10.0 mi NNW 10.4 mph - N/A   Clear
8:35 AM 39.9 °F 33.4 °F 21.6 °F 48% 30.33 in 10.0 mi North 10.4 mph - N/A   Clear
8:55 AM 42.1 °F 40.2 °F 20.7 °F 42% 30.34 in 10.0 mi NNW 3.5 mph - N/A   Clear
9:15 AM 44.1 °F 39.5 °F 20.8 °F 40% 30.34 in 10.0 mi North 8.1 mph - N/A   Clear
9:35 AM 45.5 °F 41.8 °F 19.2 °F 35% 30.35 in 10.0 mi West 6.9 mph - N/A   Clear
9:55 AM 46.9 °F - 19.8 °F 34% 30.35 in 10.0 mi NW 4.6 mph - N/A   Clear
10:15 AM 48.2 °F - 19.8 °F 32% 30.35 in 10.0 mi North 4.6 mph - N/A   Clear
10:35 AM 50.4 °F - 19.9 °F 30% 30.34 in 10.0 mi North 4.6 mph - N/A   Clear
10:55 AM 50.9 °F - 19.9 °F 30% 30.34 in 10.0 mi NNE 3.5 mph - N/A   Clear
11:15 AM 52.0 °F - 19.8 °F 28% 30.33 in 10.0 mi NW 3.5 mph - N/A   Clear
11:35 AM 53.8 °F - 19.9 °F 27% 30.32 in 10.0 mi Calm Calm - N/A   Clear
11:55 AM 54.9 °F - 20.1 °F 26% 30.32 in 10.0 mi Calm Calm - N/A   Clear
12:15 PM 57.7 °F - 20.3 °F 23% 30.32 in 10.0 mi Calm Calm - N/A   Clear
12:35 PM 58.5 °F - 20.8 °F 23% 30.31 in 10.0 mi ENE 3.5 mph - N/A   Clear
12:55 PM 60.1 °F - 20.3 °F 22% 30.31 in 10.0 mi North 4.6 mph - N/A   Clear
1:15 PM 60.4 °F - 19.9 °F 21% 30.31 in 10.0 mi Calm Calm - N/A   Clear
1:35 PM 63.5 °F - 17.2 °F 17% 30.30 in 10.0 mi South 10.4 mph 16.1 mph N/A   Clear
1:55 PM 63.9 °F - 16.9 °F 16% 30.30 in 10.0 mi SSW 11.5 mph 17.3 mph N/A   Clear
2:15 PM 64.8 °F - 15.8 °F 15% 30.30 in 10.0 mi SSW 11.5 mph 18.4 mph N/A   Clear
2:35 PM 65.5 °F - 16.2 °F 15% 30.29 in 10.0 mi SW 9.2 mph 16.1 mph N/A   Clear
2:55 PM 63.7 °F - 16.7 °F 16% 30.29 in 10.0 mi SSW 15.0 mph 24.2 mph N/A   Clear
3:15 PM 64.2 °F - 18.7 °F 17% 30.29 in 10.0 mi SSW 13.8 mph 24.2 mph N/A   Clear
3:35 PM 64.6 °F - 17.4 °F 16% 30.29 in 10.0 mi South 18.4 mph 25.3 mph N/A   Clear
3:55 PM 66.2 °F - 15.1 °F 14% 30.29 in 10.0 mi SW 19.6 mph 29.9 mph N/A   Clear
4:15 PM 66.4 °F - 15.1 °F 14% 30.29 in 10.0 mi WSW 18.4 mph 26.5 mph N/A   Clear
4:35 PM 64.8 °F - 14.5 °F 14% 30.30 in 10.0 mi WSW 17.3 mph 24.2 mph N/A   Clear
4:55 PM 64.4 °F - 13.6 °F 14% 30.30 in 10.0 mi WSW 17.3 mph 27.6 mph N/A   Clear
5:15 PM 63.7 °F - 15.8 °F 16% 30.31 in 10.0 mi WSW 12.7 mph 21.9 mph N/A   Clear
5:35 PM 63.1 °F - 15.3 °F 16% 30.32 in 10.0 mi WSW 15.0 mph 20.7 mph N/A   Clear
5:55 PM 62.1 °F - 15.8 °F 17% 30.32 in 10.0 mi WSW 12.7 mph 18.4 mph N/A   Clear
6:15 PM 60.1 °F - 15.1 °F 17% 30.32 in 10.0 mi WSW 12.7 mph 19.6 mph N/A   Clear
6:35 PM 58.1 °F - 15.6 °F 19% 30.32 in 10.0 mi WSW 10.4 mph 17.3 mph N/A   Clear
6:55 PM 54.9 °F - 16.7 °F 22% 30.33 in 10.0 mi SW 9.2 mph - N/A   Clear
7:15 PM 53.8 °F - 17.1 °F 24% 30.33 in 10.0 mi SW 9.2 mph - N/A   Clear
7:35 PM 53.1 °F - 18.3 °F 26% 30.34 in 10.0 mi West 11.5 mph - N/A   Clear
7:55 PM 51.8 °F - 18.7 °F 27% 30.35 in 10.0 mi WSW 8.1 mph - N/A   Clear
8:15 PM 52.7 °F - 18.0 °F 25% 30.35 in 10.0 mi SW 4.6 mph 17.3 mph N/A   Clear
8:35 PM 51.1 °F - 19.2 °F 29% 30.35 in 10.0 mi SW 3.5 mph - N/A   Clear
8:55 PM 48.0 °F - 20.8 °F 34% 30.35 in 10.0 mi SW 4.6 mph - N/A   Clear
9:15 PM 49.5 °F - 20.8 °F 32% 30.36 in 10.0 mi SW 9.2 mph - N/A   Clear
9:35 PM 49.8 °F - 20.8 °F 32% 30.36 in 10.0 mi WSW 9.2 mph - N/A   Clear
9:55 PM 49.5 °F - 21.2 °F 33% 30.37 in 10.0 mi WSW 9.2 mph - N/A   Clear
10:15 PM 49.3 °F - 21.9 °F 34% 30.36 in 10.0 mi WSW 10.4 mph - N/A   Clear
10:35 PM 49.8 °F - 22.3 °F 34% 30.35 in 10.0 mi SW 10.4 mph - N/A   Clear
10:55 PM 50.7 °F - 22.8 °F 34% 30.35 in 10.0 mi WSW 8.1 mph - N/A   Clear
11:15 PM 50.4 °F - 22.8 °F 34% 30.35 in 10.0 mi WSW 9.2 mph - N/A   Clear
11:35 PM 51.1 °F - 22.3 °F 32% 30.35 in 10.0 mi WSW 10.4 mph 16.1 mph N/A   Clear
11:55 PM 51.8 °F - 21.2 °F 30% 30.37 in 10.0 mi WSW 10.4 mph 16.1 mph N/A   Clear